Madera, CA

7:18 AM PDT on July 23, 2017 (GMT -0700)
Madera Municipal

Weather History for KMAE - February, 2014

Change the Weather History Date:

Tuesday, February 25, 2014

  Actual Average Record
Temperature  
Mean Temperature 61 °F 52 °F  
Max Temperature 78 °F 64 °F 78 °F (2014)
Min Temperature 43 °F 41 °F 31 °F (2017)
Degree Days  
Heating Degree Days 4    
Month to date heating degree days 293  
Since 1 July heating degree days 1808  
Cooling Degree Days 0    
Month to date cooling degree days 0  
Year to date cooling degree days 0  
Growing Degree Days 10 (Base 50)    
Moisture  
Dew Point 41 °F    
Average Humidity 55    
Maximum Humidity 89    
Minimum Humidity 21    
Precipitation  
Precipitation 0.00 in 0.09 in 0.32 in (2011)
Month to date precipitation 1.07 1.88  
Year to date precipitation 1.41 4.33  
Since 1 July precipitation 2.38  
Snow  
Snow 0.00 in - - ()
Month to date snowfall 0.0  
Since 1 July snowfall 0.0  
Snow Depth 0.00 in    
Sea Level Pressure  
Sea Level Pressure 29.92 in    
Wind  
Wind Speed 4 mph (West)    
Max Wind Speed 9 mph    
Max Gust Speed 13 mph    
Visibility 9 miles    
Events      
T = Trace of Precipitation, MM = Missing Value Source: NWS Daily Summary

Daily Weather History Graph

Daily Weather History Graph

Search for Another Location

Airport or City:

Trip Planner

Search our weather history database for the weather conditions in past years. The results will help you decide how hot, cold, wet, or windy it might be!

Date:

Astronomy

Feb. 25, 2014 Rise Set
Actual Time 6:36 AM PST 5:50 PM PST
Civil Twilight 6:10 AM PST 6:17 PM PST
Nautical Twilight 5:40 AM PST 6:47 PM PST
Astronomical Twilight 5:10 AM PST 7:17 PM PST
Moon 3:32 AM PST (2/25) 2:05 PM PST (2/25)
Length of Visible Light 12h 06m
Length of Day
11h 14m
Waning Crescent, 17% of the Moon is Illuminated
Feb 25
Waning Crescent
Mar 1
New
Mar 8
First Quarter
Mar 16
Full
Mar 23
Last Quarter

Hourly Weather History & Observations

Time (PST) Temp. Windchill Dew Point Humidity Pressure Visibility Wind Dir Wind Speed Gust Speed Precip Events Conditions
12:53 AM 46.9 °F - 41.0 °F 80% 29.95 in 10.0 mi South 3.5 mph - N/A   Clear
1:53 AM 46.9 °F - 39.9 °F 77% 29.94 in 10.0 mi Calm Calm - N/A   Clear
2:53 AM 48.0 °F - 39.9 °F 74% 29.93 in 10.0 mi NE 3.5 mph - N/A   Clear
3:53 AM 43.0 °F - 39.0 °F 86% 29.93 in 10.0 mi Calm Calm - N/A   Clear
4:53 AM 45.0 °F 43.5 °F 39.0 °F 80% 29.93 in 10.0 mi ENE 3.5 mph - N/A   Clear
5:53 AM 45.0 °F 43.5 °F 36.0 °F 71% 29.93 in 10.0 mi East 3.5 mph - N/A   Clear
6:53 AM 45.0 °F - 36.0 °F 71% 29.94 in 10.0 mi Calm Calm - N/A   Clear
7:53 AM 51.1 °F - 39.0 °F 63% 29.96 in 10.0 mi Calm Calm - N/A   Clear
8:53 AM 57.0 °F - 41.0 °F 55% 29.97 in 6.0 mi South 4.6 mph - N/A   Haze
9:53 AM 63.0 °F - 42.1 °F 46% 29.97 in 8.0 mi ESE 5.8 mph - N/A   Clear
10:53 AM 68.0 °F - 43.0 °F 40% 29.95 in 8.0 mi Variable 4.6 mph - N/A   Clear
11:53 AM 73.0 °F - 42.1 °F 33% 29.94 in 8.0 mi South 5.8 mph - N/A   Clear
12:53 PM 75.0 °F - 39.0 °F 27% 29.90 in 9.0 mi South 6.9 mph - N/A   Clear
1:53 PM 77.0 °F - 37.0 °F 24% 29.88 in 10.0 mi South 5.8 mph - N/A   Clear
2:53 PM 78.1 °F - 35.1 °F 21% 29.86 in 10.0 mi Variable 3.5 mph - N/A   Clear
3:53 PM 77.0 °F - 35.1 °F 22% 29.86 in 10.0 mi Calm Calm - N/A   Clear
4:53 PM 73.0 °F - 41.0 °F 31% 29.86 in 10.0 mi NW 3.5 mph - N/A   Clear
5:53 PM 69.1 °F - 44.1 °F 40% 29.87 in 7.0 mi WNW 5.8 mph - N/A   Clear
6:53 PM 63.0 °F - 44.1 °F 50% 29.88 in 7.0 mi NW 6.9 mph - N/A   Clear
7:53 PM 61.0 °F - 44.1 °F 54% 29.89 in 8.0 mi NW 5.8 mph - N/A   Clear
8:53 PM 57.9 °F - 45.0 °F 62% 29.90 in 6.0 mi NNW 4.6 mph - N/A   Haze
9:53 PM 55.9 °F - 46.9 °F 72% 29.90 in 7.0 mi NW 3.5 mph - N/A   Clear
10:53 PM 51.1 °F - 46.0 °F 83% 29.91 in 8.0 mi West 5.8 mph - N/A   Clear
11:53 PM 52.0 °F - 46.0 °F 80% 29.92 in 6.0 mi Calm Calm - N/A   Haze